Voltar ao catálogo

STARLINK-30178

AtivoComunicaçõesVLEO
NORAD 57447·PAYLOAD·🇺🇸 United States

Lançado Jul 24, 2023 de Cape Canaveral Space Force Station

Loading…

Próximas Passagens (próximas 24 horas)

TLE

AtualizadoSource: CelesTrak SupGP

Época: Sep 15, 2026, 02:37 UTC

1 57447C 23105T   26258.10951389 -.00007764  00000+0 -28128-3 0  2584
2 57447  43.0001 270.2931 0001317 264.9766 285.9627 15.27575700    12

Acompanhe STARLINK-30178 em tempo real com AllMySat

Download on the App Store